#timestamp,LO_Frequency,Hit,StdDev 
1510833615.4,286047000.8,N
1510833635.2,286047001.1,N
1510833655.1,286046999.8,N
1510833656.0,286046999.8,N
1510833675.8,286047002.7,N
1510833695.7,286047000.2,N
1510833715.5,286047000.9,N
1510833735.3,286047000.7,N
1510833755.2,286046998.6,N
1510833775.0,286046999.2,N
1510833775.9,286046999.2,N
1510833795.8,286046999.5,N
1510833815.6,286046998.5,N
1510833835.4,286046999.1,N
1510833855.3,286046998.3,N
1510833875.1,286047000.8,N
1510833895.9,286047002.8,N
1510833915.7,286047002.1,N
1510833935.5,286047002.8,N
1510833955.4,286047000.2,N
1510833975.2,286047000.2,N
1510833995.1,286047001.5,N
1510833996.0,286047001.5,N
1510834015.8,286047001.9,N
1510834035.6,286047003.8,N
1510834055.5,286047004.1,N
1510834075.3,286047004.1,N
1510834095.1,286047001.3,N
1510834115.9,286047002.8,N
1510834135.7,286047002.8,N
1510834155.6,286047000.1,N
1510834175.4,286047002.3,N
1510834195.2,286047002.3,N
1510834215.1,286046999.8,N
1510834216.0,286046999.8,N
1510834235.8,286047002.5,N
1510834255.7,286046998.2,N
1510834275.5,286046998.5,N
1510834295.3,286046998.9,N
1510834315.2,286046998.4,N
1510834335.0,286047000.4,N
1510834335.9,286047000.4,N
1510834355.7,286047000.7,N
1510834375.6,286047000.4,N
1510834395.4,286047000.6,N
1510834415.3,286047000.2,N
1510834435.1,286047000.9,N
1510834436.0,286047000.9,N
1510834455.8,286047001.8,N
1510834475.7,286047001.9,N
1510834495.5,286046998.3,N
1510834515.4,286047000.8,N
1510834535.2,286047000.7,N
1510834555.0,286046998.2,N
1510834555.9,286046998.2,N
1510834575.8,286046997.2,N
1510834595.6,286046996.8,N
1510834615.4,286047001.1,N
1510834635.3,286046998.7,N
1510834655.1,286046999.0,N
1510834675.9,286046999.6,N
1510834695.7,286046998.6,N
1510834715.5,286046998.1,N
1510834735.4,286047002.7,N
1510834755.2,286047001.5,N
1510834775.0,286047002.3,N
1510834775.9,286047002.3,N
1510834795.8,286047001.5,N
1510834815.6,286047000.1,N
1510834835.5,286047004.0,N
1510834855.3,286047002.7,N
1510834875.1,286047001.8,N
1510834895.9,286047001.6,N
1510834915.7,286047000.2,N
1510834935.5,286047001.3,N
1510834955.4,286047004.3,N
1510834975.2,286047001.5,N
1510834995.1,286047002.4,N
1510834996.0,286047002.4,N
1510835015.8,286046999.8,N
1510835035.6,286047000.0,N
1510835055.5,286047000.3,N
1510835075.3,286047002.1,N
1510835095.2,286047001.6,N
1510835115.9,286047004.2,N
1510835135.7,286047002.6,N
1510835155.6,286047000.0,N
1510835175.4,286046998.5,N
1510835195.2,286046996.5,N
1510835215.1,286046996.8,N
1510835216.0,286046996.8,N
1510835235.8,286046996.5,N
1510835255.7,286046999.4,N
1510835275.5,286046999.4,N
1510835295.3,286046998.4,N
1510835345.2,286047001.9,E
1510835355.1,286047000.6,N
1510835375.9,286046997.2,P
1510835395.7,286046996.6,N
1510835415.5,286046999.5,N
1510835435.4,286046996.7,N
1510835455.2,286046999.6,N
1510835475.1,286046999.2,N
1510835476.0,286046999.2,N
1510835495.8,286046996.7,N
1510835515.7,286046996.6,N
1510835535.5,286046998.3,N
1510835555.3,286047000.9,N
1510835575.2,286047000.4,N
1510835595.0,286047001.0,N
1510835595.9,286047001.0,N
1510835615.8,286047002.1,N
1510835635.6,286047000.2,N
1510835655.4,286047000.5,N
1510835675.3,286046999.8,N
1510835695.1,286047001.2,N
1510835715.9,286047000.6,N
1510835735.7,286047001.6,N
1510835755.5,286047000.1,N
1510835775.4,286047000.3,N
1510835795.2,286047000.6,N
1510835815.0,286047002.7,N
1510835815.9,286047002.7,N
1510835835.8,286047000.1,N
1510835855.6,286047000.2,N
1510835875.5,286047001.4,N
1510835895.3,286047002.6,N
1510835915.1,286047002.2,N
1510835935.9,286047002.6,N
1510835955.7,286047002.1,N
1510835975.6,286046999.7,N
1510835995.4,286047001.1,N
1510836015.2,286046998.6,N
1510836035.1,286046999.6,N
1510836036.0,286046999.6,N
1510836055.8,286046999.6,N
1510836075.6,286047000.8,N
1510836095.5,286046999.6,N
1510836115.3,286046998.3,N
1510836135.2,286046998.9,N
1510836155.9,286046998.4,N
1510836175.7,286047001.2,N
1510836195.6,286046998.7,N
1510836215.4,286046998.3,N
1510836235.2,286046997.7,N
1510836255.1,286046997.1,N
1510836256.0,286046997.1,N
1510836275.8,286046997.1,N
1510836295.7,286046997.0,N
1510836315.5,286046999.6,N
1510836335.4,286046996.6,N
1510836355.2,286046999.3,N
1510836375.0,286046997.1,N
1510836375.9,286046997.1,N
1510836395.8,286046999.2,N
1510836415.6,286046998.6,N
1510836435.4,286046996.6,N
1510836455.3,286046996.9,N
1510836475.1,286046997.3,N
1510836495.9,286046998.5,N
1510836515.7,286046998.2,N
1510836535.5,286046998.1,N
1510836555.4,286046999.7,N
1510836575.2,286047001.1,N
1510836595.1,286046998.1,N
1510836596.0,286046998.1,N
1510836615.8,286046998.7,N
1510836635.6,286046999.1,N
1510836655.5,286046997.2,N
1510836675.3,286046997.2,N
1510836695.1,286046998.7,N
1510836715.9,286046998.8,N
1510836735.7,286046996.7,Y
1510836755.6,286047001.2,P
1510836775.4,286047000.9,N
1510836795.2,286046998.1,N
1510836815.1,286046998.3,N
1510836816.0,286046998.3,N
1510836835.8,286046999.0,N
1510836855.6,286047000.8,N
1510836875.5,286046998.5,N
1510836895.3,286046998.9,N
1510836915.2,286047001.1,N
1510836935.9,286046998.9,N
1510836955.7,286046996.7,N
1510836975.6,286046996.7,N
1510836995.4,286046995.3,Y
1510837015.3,286046997.1,P
1510837035.1,286046997.3,N
1510837055.8,286046999.1,N
1510837075.7,286046998.4,N
1510837095.5,286047001.0,N
1510837115.4,286046998.6,N
1510837135.2,286046997.0,N
1510837155.0,286046999.0,N
1510837155.9,286046999.0,N
1510837175.8,286046998.7,N
1510837195.6,286046998.1,N
